FW3743 Weather Reports


Display with metric or nautical units.
time (UTC)temp
F
wind
direction
speed
MPH
gust
MPH
rain 1hr
in
rain 24hr
in
rain mn
in
humidity
%
barometer
mb
20260510043435 51 0.0 0.0 0.03 0.31 0.00 99 1007.6
20260510042437 52 0.0 0.0 0.05 0.31 0.00 99 1007.9
20260510041435 52 0.0 0.0 0.08 0.31 0.00 99 1008.0
20260510040434 52 0.0 0.0 0.10 0.31 0.00 99 1007.9
20260510035435 52 0.0 0.0 0.17 0.31 0.31 99 1008.3
20260510034433 52 0.0 0.0 0.18 0.29 0.29 99 1007.9
20260510033435 52 281 0.0 4.0 0.21 0.28 0.28 99 1007.8
20260510032433 52 0.0 0.0 0.22 0.26 0.26 99 1008.1
20260510031435 52 0.0 0.0 0.23 0.23 0.23 99 1007.9
20260510030434 52 0.0 0.0 0.21 0.21 0.21 99 1008.7
20260510025435 52 0.0 0.0 0.14 0.14 0.14 99 1008.6
20260510024433 53 0.0 0.0 0.11 0.11 0.11 98 1009.4
20260510023435 53 282 0.0 4.0 0.06 0.06 0.06 96 1009.4
20260510022437 56 0.0 0.0 0.03 0.03 0.03 92 1010.1
20260510021435 58 0.0 0.0 0.00 0.00 0.00 86 1006.9
20260510020434 57 0.0 0.0 0.00 0.00 0.00 86 1006.8
20260510015435 57 0.0 0.0 0.00 0.00 0.00 86 1006.4
20260510014453 57 0.0 0.0 0.00 0.00 0.00 86 1006.7
20260510013435 57 0.0 0.0 0.00 0.00 0.00 86 1006.0
20260510012453 57 0.0 0.0 0.00 0.00 0.00 86 1006.4
20260510011435 57 0.0 0.0 0.00 0.00 0.00 86 1006.0
20260510010433 57 0.0 0.0 0.00 0.00 0.00 85 1006.1
20260510005435 57 0.0 0.0 0.00 0.00 0.00 85 1005.7
20260510004513 57 0.0 0.0 0.00 0.00 0.00 85 1006.0
20260510003435 57 0.0 0.0 0.00 0.00 0.00 84 1005.8
20260510002433 58 0.0 0.0 0.00 0.00 0.00 83 1005.8
20260510001455 58 0.0 0.0 0.00 0.00 0.00 82 1005.7
20260510000433 59 0.0 0.0 0.00 0.00 0.00 81 1005.9
20260509235455 59 0.0 0.0 0.00 0.00 0.00 80 1005.7
20260509234433 60 0.0 0.0 0.00 0.00 0.00 79 1005.8
20260509233435 60 0.0 0.0 0.00 0.00 0.00 79 1005.6
20260509232433 60 0.0 0.0 0.00 0.00 0.00 77 1005.9
20260509231435 61 0.0 0.0 0.00 0.00 0.00 77 1005.5
20260509230433 61 0.0 0.0 0.00 0.00 0.00 76 1005.6
20260509225435 61 0.0 0.0 0.00 0.00 0.00 76 1005.5
20260509224433 61 0.0 0.0 0.00 0.00 0.00 77 1005.7
20260509223435 60 0.0 0.0 0.00 0.00 0.00 78 1005.8
20260509222433 61 0.0 0.0 0.00 0.00 0.00 76 1005.8
20260509221455 63 0.0 0.0 0.00 0.00 0.00 73 1005.5
20260509220433 62 0.0 0.0 0.00 0.00 0.00 73 1005.8
20260509215435 61 0.0 0.0 0.00 0.00 0.00 75 1005.6
20260509214433 63 0.0 0.0 0.00 0.00 0.00 73 1005.7
20260509213435 63 355 0.0 1.0 0.00 0.00 0.00 73 1005.8
20260509212453 62 0.0 0.0 0.00 0.00 0.00 74 1005.7
20260509211435 64 0.0 0.0 0.00 0.00 0.00 72 1005.7
20260509210433 64 0.0 0.0 0.00 0.00 0.00 71 1006.0
20260509205437 65 145 0.0 8.0 0.00 0.00 0.00 70 1005.6
20260509204433 64 2 0.0 1.0 0.00 0.00 0.00 71 1006.0
20260509203435 64 284 0.0 8.0 0.00 0.00 0.00 72 1006.0
20260509202433 63 0.0 0.0 0.00 0.00 0.00 73 1006.1
20260509201435 62 0.0 0.0 0.00 0.00 0.00 74 1006.0
20260509200433 62 278 0.0 1.0 0.00 0.00 0.00 74 1006.3
20260509195435 63 0.0 0.0 0.00 0.00 0.00 72 1006.1
20260509194433 63 250 0.0 1.0 0.00 0.00 0.00 72 1006.6
20260509193436 62 0.0 0.0 0.00 0.00 0.00 77 1006.6
20260509192433 61 0.0 0.0 0.00 0.00 0.00 78 1006.9
20260509191436 59 0.0 0.0 0.00 0.00 0.00 80 1007.0
20260509190433 59 0.0 0.0 0.00 0.00 0.00 83 1007.2
20260509185436 58 0.0 0.0 0.00 0.00 0.00 83 1007.5
20260509184433 59 0.0 0.0 0.00 0.00 0.00 83 1007.5
20260509183435 57 0.0 0.0 0.00 0.00 0.00 86 1007.6
20260509182433 55 0.0 0.0 0.00 0.00 0.00 89 1008.0
20260509181516 54 0.0 0.0 0.00 0.00 0.00 90 1007.8
20260509180433 54 0.0 0.0 0.00 0.00 0.00 90 1008.0
20260509175436 54 0.0 0.0 0.00 0.00 0.00 90 1007.8
20260509174453 55 0.0 0.0 0.00 0.00 0.00 90 1008.2
20260509173436 54 0.0 0.0 0.00 0.00 0.00 91 1007.7
20260509172433 53 0.0 0.0 0.00 0.00 0.00 91 1008.0
20260509171436 53 0.0 0.0 0.00 0.00 0.00 90 1008.2
20260509170434 54 0.0 0.0 0.00 0.00 0.00 89 1008.4
20260509165436 54 0.0 0.0 0.00 0.00 0.00 88 1008.2
20260509164433 54 0.0 0.0 0.00 0.00 0.00 88 1008.7
20260509163436 53 0.0 0.0 0.00 0.00 0.00 88 1008.6
20260509162453 52 0.0 0.0 0.00 0.00 0.00 88 1008.9
20260509161436 51 0.0 0.0 0.00 0.00 0.00 88 1008.7
20260509160433 52 0.0 0.0 0.00 0.00 0.00 87 1009.1
20260509155436 52 0.0 0.0 0.00 0.00 0.00 87 1008.8
20260509154433 52 0.0 0.0 0.00 0.00 0.00 86 1009.1
20260509153536 53 0.0 0.0 0.00 0.00 0.00 85 1009.1
20260509152433 53 0.0 0.0 0.00 0.00 0.00 84 1009.4
20260509151456 53 0.0 0.0 0.00 0.01 0.00 84 1009.2
20260509150433 53 0.0 0.0 0.00 0.01 0.00 84 1009.6
20260509145456 53 0.0 0.0 0.00 0.01 0.00 84 1009.4
20260509144433 53 0.0 0.0 0.00 0.02 0.00 83 1009.7
20260509143456 52 0.0 0.0 0.00 0.02 0.00 84 1009.5
20260509142433 52 0.0 0.0 0.00 0.02 0.00 83 1009.8
20260509141456 51 0.0 0.0 0.00 0.02 0.00 84 1009.8
20260509140433 50 0.0 0.0 0.00 0.04 0.00 85 1009.8
20260509135436 50 0.0 0.0 0.00 0.05 0.00 85 1009.5
20260509134433 49 0.0 0.0 0.00 0.05 0.00 85 1010.1
20260509133436 48 0.0 0.0 0.00 0.05 0.00 85 1009.9
20260509132433 48 0.0 0.0 0.00 0.05 0.00 85 1010.2
20260509131436 47 0.0 0.0 0.00 0.05 0.00 85 1010.2
20260509130433 47 0.0 0.0 0.00 0.05 0.00 85 1010.3
20260509125436 46 0.0 0.0 0.00 0.05 0.00 85 1010.1
20260509124433 46 0.0 0.0 0.00 0.05 0.00 85 1010.2
20260509123436 45 0.0 0.0 0.00 0.05 0.00 86 1010.1
20260509122453 45 0.0 0.0 0.00 0.05 0.00 86 1010.2
20260509121436 45 0.0 0.0 0.00 0.05 0.00 86 1010.2
20260509120433 45 0.0 0.0 0.00 0.05 0.00 86 1010.5
20260509115436 44 0.0 0.0 0.00 0.05 0.00 86 1010.4
20260509114433 44 0.0 0.0 0.00 0.05 0.00 87 1010.5
20260509113457 43 0.0 0.0 0.00 0.05 0.00 87 1010.4
20260509112433 43 0.0 0.0 0.00 0.05 0.00 88 1010.4
20260509111456 43 0.0 0.0 0.00 0.05 0.00 88 1010.2
20260509110433 42 0.0 0.0 0.00 0.05 0.00 89 1010.5
20260509105436 42 0.0 0.0 0.00 0.05 0.00 90 1010.4
20260509104433 41 0.0 0.0 0.00 0.05 0.00 91 1010.7
20260509103436 41 0.0 0.0 0.00 0.05 0.00 91 1010.3
20260509102433 41 0.0 0.0 0.00 0.05 0.00 91 1010.7
20260509101436 41 0.0 0.0 0.00 0.05 0.00 91 1010.4
20260509100433 40 0.0 0.0 0.00 0.05 0.00 91 1010.6
20260509095456 40 0.0 0.0 0.00 0.05 0.00 90 1010.1
20260509094433 40 0.0 0.0 0.00 0.05 0.00 91 1010.4
20260509093436 39 0.0 0.0 0.00 0.05 0.00 91 1010.1
20260509092433 39 0.0 0.0 0.00 0.05 0.00 92 1010.3
20260509091436 39 0.0 0.0 0.00 0.05 0.00 93 1010.2
20260509090434 39 0.0 0.0 0.00 0.05 0.00 92 1010.4
20260509085436 39 0.0 0.0 0.00 0.05 0.00 92 1010.6
20260509084433 39 0.0 0.0 0.00 0.05 0.00 92 1010.7
20260509083436 39 0.0 0.0 0.00 0.05 0.00 93 1010.7
20260509082453 39 0.0 0.0 0.00 0.05 0.00 94 1010.9
20260509081456 39 0.0 0.0 0.00 0.05 0.00 95 1011.0
20260509080433 38 0.0 0.0 0.00 0.05 0.00 96 1011.1
20260509075456 38 0.0 0.0 0.00 0.05 0.00 96 1011.0
20260509074433 38 0.0 0.0 0.00 0.05 0.00 95 1011.2
20260509073436 39 0.0 0.0 0.00 0.05 0.00 94 1011.0
20260509072433 39 0.0 0.0 0.00 0.05 0.00 94 1011.1
20260509071436 39 0.0 0.0 0.00 0.05 0.00 94 1011.1
20260509070433 39 0.0 0.0 0.00 0.05 0.00 94 1011.2
20260509065436 39 0.0 0.0 0.00 0.05 0.00 93 1011.0
20260509064433 39 0.0 0.0 0.00 0.05 0.00 92 1011.3
20260509063436 39 0.0 0.0 0.00 0.05 0.00 91 1011.4
20260509062433 40 0.0 0.0 0.00 0.05 0.00 90 1011.5
20260509061436 40 0.0 0.0 0.00 0.07 0.00 88 1011.3
20260509060433 41 0.0 0.0 0.00 0.08 0.00 88 1011.8
20260509055436 41 0.0 0.0 0.00 0.08 0.00 87 1011.6
20260509054433 41 0.0 0.0 0.00 0.08 0.00 88 1011.9
20260509053436 40 0.0 0.0 0.00 0.08 0.00 89 1011.8
20260509052433 40 0.0 0.0 0.00 0.08 0.00 89 1012.2
20260509051456 40 0.0 0.0 0.00 0.08 0.00 91 1012.0
20260509050453 39 0.0 0.0 0.00 0.08 0.00 92 1012.3
20260509045436 39 0.0 0.0 0.00 0.08 0.00 93 1012.1
20260509044433 39 0.0 0.0 0.00 0.08 0.00 94 1012.3